IRIDIUM 28 (24948 NORAD) Tracking and Keplerian Element Data

This shows tracking and keplerian element data for the satellite.

Feedback or suggestion? Click here.




ElementValue
Catalog24948
NameIRIDIUM 28
Epoch Orbit43470
Epoch Day34.93257556
Epoch Year2025
RAAN197.3173
Inclination86.3989
Eccentricity0.00022
Argument of Perigee102.577
Mean Anonmoly257.5673
Mean Motion14.37195524
Decay Rate9.09E-06
L11 24948U 97051E 25034.93257556 .00000909 00000+0 29918-3 0 9994
L22 24948 86.3989 197.3173 0002200 102.5770 257.5673 14.37195524434703



Live tracking and technical data element details for IRIDIUM 28 (NORAD 24948). IRIDIUM 28 can be tracked NOW for your location showing map with azimuth and elevation plus other details from your city location.







IsCatalogInMostPopularTable: catalog: 24948, numindb: 405
Update: records affected: 1



GetName: 24948 IRIDIUM 28

Hit Count: updated at: Thu, 15 May 2025 10:10:10 GMT